"read_dt","SO2 (ppb)","flags","PMT voltage (V)","lamp voltage (V)","lamp intensity (Hz)","internal temp (C)","react chamber temp (C)","sample flow (l/min)","pres (mmHg)","SO2 bkg (ppb)","SO2 coefficient"
2015-09-27 00:00:00,1981E-3,5C000400,-0724,0825,12290,026.2,045.4,0.260,756.4,01.16,0.508
2015-09-27 00:01:00,1939E-3,5C000400,-0724,0826,12308,026.2,045.4,0.260,756.2,01.16,0.508
2015-09-27 00:02:00,1851E-3,5C000400,-0724,0826,12287,026.3,045.4,0.259,756.2,01.16,0.508
2015-09-27 00:03:00,1948E-3,5C000400,-0724,0825,12263,026.2,045.4,0.259,756.2,01.16,0.508
2015-09-27 00:04:00,1940E-3,5C000400,-0724,0824,12269,026.3,045.4,0.259,756.4,01.16,0.508
2015-09-27 00:05:00,2005E-3,5C000400,-0724,0826,12227,026.2,045.4,0.259,756.2,01.16,0.508
2015-09-27 00:06:00,1944E-3,5C000400,-0724,0825,12254,026.3,045.4,0.259,756.2,01.16,0.508
2015-09-27 00:07:00,1874E-3,5C000400,-0724,0825,12129,026.3,045.4,0.259,756.1,01.16,0.508
2015-09-27 00:08:00,1837E-3,5C000400,-0724,0825,12306,026.3,045.4,0.259,756.1,01.16,0.508
2015-09-27 00:09:00,1916E-3,5C000400,-0724,0826,12149,026.2,045.4,0.259,756.2,01.16,0.508
2015-09-27 00:10:00,1878E-3,5C000400,-0724,0825,12334,026.3,045.3,0.259,756.1,01.16,0.508
2015-09-27 00:11:00,2052E-3,5C000400,-0724,0826,12383,026.3,045.4,0.259,756.1,01.16,0.508
2015-09-27 00:12:00,1965E-3,5C000400,-0724,0826,12194,026.3,045.4,0.259,756.3,01.16,0.508
2015-09-27 00:13:00,1950E-3,5C000400,-0724,0826,12328,026.3,045.4,0.259,756.1,01.16,0.508
2015-09-27 00:14:00,1871E-3,5C000400,-0724,0826,12207,026.3,045.4,0.259,756.1,01.16,0.508
2015-09-27 00:15:00,1884E-3,5C000400,-0724,0826,12170,026.3,045.4,0.259,756.3,01.16,0.508
2015-09-27 00:16:00,1873E-3,5C000400,-0724,0826,12358,026.3,045.4,0.259,756.3,01.16,0.508
2015-09-27 00:17:00,1973E-3,5C000400,-0724,0825,12339,026.3,045.4,0.259,756.1,01.16,0.508
2015-09-27 00:18:00,1955E-3,5C000400,-0724,0825,12055,026.3,045.4,0.259,756.4,01.16,0.508
2015-09-27 00:19:00,1898E-3,5C000400,-0724,0826,12254,026.3,045.4,0.259,756.3,01.16,0.508
2015-09-27 00:20:00,2011E-3,5C000400,-0724,0825,12268,026.3,045.4,0.259,756.2,01.16,0.508
2015-09-27 00:21:00,1809E-3,5C000400,-0724,0826,12277,026.3,045.4,0.259,756.2,01.16,0.508
2015-09-27 00:22:00,1875E-3,5C000400,-0724,0825,12159,026.2,045.4,0.259,756.3,01.16,0.508
2015-09-27 00:23:00,1917E-3,5C000400,-0724,0825,12296,026.3,045.4,0.259,756.2,01.16,0.508
2015-09-27 00:24:00,1914E-3,5C000400,-0724,0825,12146,026.3,045.4,0.259,756.2,01.16,0.508
2015-09-27 00:25:00,2031E-3,5C000400,-0724,0825,12260,026.3,045.4,0.259,756.3,01.16,0.508
2015-09-27 00:26:00,1984E-3,5C000400,-0724,0825,12320,026.3,045.4,0.259,756.4,01.16,0.508
2015-09-27 00:27:00,1897E-3,5C000400,-0724,0825,12175,026.3,045.4,0.259,756.4,01.16,0.508
2015-09-27 00:28:00,1961E-3,5C000400,-0724,0825,12297,026.3,045.4,0.259,756.2,01.16,0.508
2015-09-27 00:29:00,1860E-3,5C000400,-0724,0824,12182,026.3,045.4,0.259,756.5,01.16,0.508
2015-09-27 00:30:00,1857E-3,5C000400,-0724,0826,12223,026.3,045.4,0.259,756.4,01.16,0.508
2015-09-27 00:31:00,1763E-3,5C000400,-0724,0825,12294,026.3,045.4,0.259,756.4,01.16,0.508
2015-09-27 00:32:00,1990E-3,5C000400,-0724,0825,12345,026.3,045.4,0.259,756.5,01.16,0.508
2015-09-27 00:33:00,1914E-3,5C000400,-0724,0825,12362,026.3,045.4,0.259,756.4,01.16,0.508
2015-09-27 00:34:00,1960E-3,5C000400,-0724,0826,12248,026.3,045.4,0.259,756.3,01.16,0.508
2015-09-27 00:35:00,2009E-3,5C000400,-0724,0825,12220,026.3,045.4,0.259,756.3,01.16,0.508
2015-09-27 00:36:00,1940E-3,5C000400,-0724,0825,12285,026.3,045.4,0.259,756.4,01.16,0.508
2015-09-27 00:37:00,1818E-3,5C000400,-0724,0825,12140,026.3,045.4,0.259,756.2,01.16,0.508
2015-09-27 00:38:00,1988E-3,5C000400,-0724,0826,12143,026.3,045.4,0.259,756.3,01.16,0.508
2015-09-27 00:39:00,1848E-3,5C000400,-0724,0825,12229,026.4,045.4,0.259,756.3,01.16,0.508
2015-09-27 00:40:00,1926E-3,5C000400,-0724,0826,12259,026.3,045.4,0.259,756.2,01.16,0.508
2015-09-27 00:41:00,1889E-3,5C000400,-0724,0826,12339,026.3,045.4,0.259,756.3,01.16,0.508
2015-09-27 00:42:00,1971E-3,5C000400,-0724,0826,12188,026.4,045.4,0.259,756.4,01.16,0.508
2015-09-27 00:43:00,1861E-3,5C000400,-0724,0826,12282,026.3,045.4,0.259,756.2,01.16,0.508
2015-09-27 00:44:00,1984E-3,5C000400,-0724,0826,12169,026.3,045.4,0.259,756.2,01.16,0.508
2015-09-27 00:45:00,1895E-3,5C000400,-0724,0825,12185,026.4,045.4,0.259,756.2,01.16,0.508
2015-09-27 00:46:00,1874E-3,5C000400,-0724,0826,12198,026.3,045.4,0.259,756.2,01.16,0.508
2015-09-27 00:47:00,1910E-3,5C000400,-0724,0825,12183,026.4,045.4,0.259,756.2,01.16,0.508
2015-09-27 00:48:00,1847E-3,5C000400,-0724,0825,12267,026.4,045.4,0.259,756.1,01.16,0.508
2015-09-27 00:49:00,2144E-3,5C000400,-0724,0825,12162,026.4,045.4,0.259,756.1,01.16,0.508
2015-09-27 00:50:00,1882E-3,5C000400,-0724,0825,12206,026.4,045.4,0.259,756.2,01.16,0.508
2015-09-27 00:51:00,2130E-3,5C000400,-0724,0826,12148,026.4,045.4,0.259,755.9,01.16,0.508
2015-09-27 00:52:00,1930E-3,5C000400,-0724,0826,12237,026.4,045.4,0.259,756.0,01.16,0.508
2015-09-27 00:53:00,1849E-3,5C000400,-0724,0826,12448,026.4,045.4,0.259,756.1,01.16,0.508
2015-09-27 00:54:00,1992E-3,5C000400,-0724,0825,12323,026.4,045.4,0.259,756.2,01.16,0.508
2015-09-27 00:55:00,1745E-3,5C000400,-0724,0826,12256,026.4,045.4,0.259,756.2,01.16,0.508
2015-09-27 00:56:00,1931E-3,5C000400,-0724,0826,12178,026.4,045.4,0.259,756.2,01.16,0.508
2015-09-27 00:57:00,1864E-3,5C000400,-0724,0826,12227,026.4,045.4,0.259,756.1,01.16,0.508
2015-09-27 00:58:00,1952E-3,5C000400,-0724,0825,12193,026.4,045.4,0.259,756.0,01.16,0.508
2015-09-27 00:59:00,1814E-3,5C000400,-0724,0826,12187,026.4,045.4,0.259,756.0,01.16,0.508
2015-09-27 01:00:00,1877E-3,5C000400,-0724,0825,12143,026.4,045.4,0.259,756.1,01.16,0.508
2015-09-27 01:01:00,1928E-3,5C000400,-0724,0827,12320,026.4,045.4,0.259,756.2,01.16,0.508
2015-09-27 01:02:00,1855E-3,5C000400,-0724,0825,12107,026.4,045.4,0.259,756.1,01.16,0.508
2015-09-27 01:03:00,1979E-3,5C000400,-0724,0825,12315,026.4,045.4,0.259,756.2,01.16,0.508
2015-09-27 01:04:00,1925E-3,5C000400,-0724,0826,12207,026.4,045.4,0.259,756.1,01.16,0.508
2015-09-27 01:05:00,2007E-3,5C000400,-0724,0825,12263,026.4,045.4,0.259,756.2,01.16,0.508
2015-09-27 01:06:00,1931E-3,5C000400,-0724,0825,12203,026.4,045.4,0.259,756.2,01.16,0.508
2015-09-27 01:07:00,1830E-3,5C000400,-0724,0825,12351,026.4,045.4,0.259,756.2,01.16,0.508
2015-09-27 01:08:00,1843E-3,5C000400,-0724,0826,12292,026.4,045.4,0.259,756.2,01.16,0.508
2015-09-27 01:09:00,2000E-3,5C000400,-0724,0826,12258,026.4,045.4,0.259,756.0,01.16,0.508
2015-09-27 01:10:00,1931E-3,5C000400,-0724,0825,12302,026.4,045.4,0.259,756.1,01.16,0.508
2015-09-27 01:11:00,1876E-3,5C000400,-0724,0826,12266,026.4,045.4,0.259,755.7,01.16,0.508
2015-09-27 01:12:00,1917E-3,5C000400,-0724,0825,12225,026.4,045.4,0.259,756.0,01.16,0.508
2015-09-27 01:13:00,1875E-3,5C000400,-0724,0826,12320,026.4,045.4,0.259,756.1,01.16,0.508
2015-09-27 01:14:00,1884E-3,5C000400,-0724,0825,12280,026.4,045.4,0.259,756.1,01.16,0.508
2015-09-27 01:15:00,1822E-3,5C000400,-0724,0826,12215,026.4,045.4,0.259,756.0,01.16,0.508
2015-09-27 01:16:00,1895E-3,5C000400,-0724,0825,12277,026.5,045.4,0.259,756.0,01.16,0.508
2015-09-27 01:17:00,1897E-3,5C000400,-0724,0826,12193,026.5,045.4,0.259,755.8,01.16,0.508
2015-09-27 01:18:00,1989E-3,5C000400,-0724,0825,12280,026.4,045.4,0.259,755.8,01.16,0.508
2015-09-27 01:19:00,1891E-3,5C000400,-0724,0826,12105,026.5,045.4,0.259,756.1,01.16,0.508
2015-09-27 01:20:00,1869E-3,5C000400,-0724,0825,12168,026.4,045.4,0.259,756.0,01.16,0.508
2015-09-27 01:21:00,1935E-3,5C000400,-0724,0826,12277,026.4,045.4,0.259,755.9,01.16,0.508
2015-09-27 01:22:00,1962E-3,5C000400,-0724,0825,12143,026.5,045.4,0.259,756.0,01.16,0.508
2015-09-27 01:23:00,1872E-3,5C000400,-0724,0826,12278,026.5,045.4,0.258,756.0,01.16,0.508
2015-09-27 01:24:00,1939E-3,5C000400,-0724,0825,12301,026.5,045.4,0.259,755.9,01.16,0.508
2015-09-27 01:25:00,1903E-3,5C000400,-0724,0826,12307,026.5,045.4,0.259,755.9,01.16,0.508
2015-09-27 01:26:00,1923E-3,5C000400,-0724,0825,12281,026.5,045.4,0.259,755.8,01.16,0.508
2015-09-27 01:27:00,1957E-3,5C000400,-0724,0825,12231,026.5,045.4,0.259,756.0,01.16,0.508
2015-09-27 01:28:00,1883E-3,5C000400,-0724,0826,12216,026.5,045.4,0.259,755.9,01.16,0.508
2015-09-27 01:29:00,1975E-3,5C000400,-0724,0827,12367,026.5,045.4,0.259,755.9,01.16,0.508
2015-09-27 01:30:00,1896E-3,5C000400,-0724,0826,12290,026.5,045.4,0.259,755.9,01.16,0.508
2015-09-27 01:31:00,1804E-3,5C000400,-0724,0826,12243,026.5,045.4,0.259,755.8,01.16,0.508
2015-09-27 01:32:00,1778E-3,5C000400,-0724,0825,12166,026.5,045.4,0.259,755.8,01.16,0.508
2015-09-27 01:33:00,1888E-3,5C000400,-0724,0825,12216,026.5,045.4,0.258,755.5,01.16,0.508
2015-09-27 01:34:00,1857E-3,5C000400,-0724,0825,12296,026.5,045.4,0.259,755.6,01.16,0.508
2015-09-27 01:35:00,1807E-3,5C000400,-0724,0825,12176,026.5,045.4,0.259,755.7,01.16,0.508
2015-09-27 01:36:00,1897E-3,5C000400,-0724,0825,12229,026.5,045.4,0.259,755.6,01.16,0.508
2015-09-27 01:37:00,1935E-3,5C000400,-0724,0826,12347,026.5,045.4,0.259,755.6,01.16,0.508
2015-09-27 01:38:00,2033E-3,5C000400,-0724,0825,12346,026.5,045.4,0.259,755.8,01.16,0.508
2015-09-27 01:39:00,1940E-3,5C000400,-0724,0825,12241,026.5,045.4,0.259,755.6,01.16,0.508
2015-09-27 01:40:00,1953E-3,5C000400,-0724,0825,12160,026.5,045.4,0.259,755.4,01.16,0.508
2015-09-27 01:41:00,1980E-3,5C000400,-0724,0825,12166,026.5,045.4,0.259,755.6,01.16,0.508
2015-09-27 01:42:00,1930E-3,5C000400,-0724,0825,12247,026.5,045.4,0.259,755.6,01.16,0.508
2015-09-27 01:43:00,1910E-3,5C000400,-0724,0826,12302,026.5,045.4,0.259,755.2,01.16,0.508
2015-09-27 01:44:00,1964E-3,5C000400,-0724,0825,12202,026.5,045.4,0.259,755.4,01.16,0.508
2015-09-27 01:45:00,1909E-3,5C000400,-0724,0825,12216,026.5,045.4,0.259,755.5,01.16,0.508
2015-09-27 01:46:00,1885E-3,5C000400,-0724,0825,12152,026.6,045.4,0.259,755.5,01.16,0.508
2015-09-27 01:47:00,1940E-3,5C000400,-0724,0825,12221,026.5,045.4,0.259,755.5,01.16,0.508
2015-09-27 01:48:00,2085E-3,5C000400,-0724,0825,12224,026.5,045.4,0.258,755.4,01.16,0.508
2015-09-27 01:49:00,1891E-3,5C000400,-0724,0825,12304,026.5,045.4,0.258,755.4,01.16,0.508
2015-09-27 01:50:00,1891E-3,5C000400,-0724,0826,12323,026.5,045.4,0.259,755.3,01.16,0.508
2015-09-27 01:51:00,1874E-3,5C000400,-0724,0825,12315,026.5,045.4,0.259,755.5,01.16,0.508
2015-09-27 01:52:00,2009E-3,5C000400,-0724,0826,12174,026.6,045.4,0.259,755.3,01.16,0.508
2015-09-27 01:53:00,1978E-3,5C000400,-0724,0825,12304,026.5,045.4,0.259,755.5,01.16,0.508
2015-09-27 01:54:00,2002E-3,5C000400,-0724,0825,12237,026.5,045.4,0.259,755.5,01.16,0.508
2015-09-27 01:55:00,1950E-3,5C000400,-0724,0825,12164,026.6,045.4,0.259,755.4,01.16,0.508
2015-09-27 01:56:00,1921E-3,5C000400,-0724,0825,12123,026.6,045.4,0.259,755.4,01.16,0.508
2015-09-27 01:57:00,1885E-3,5C000400,-0724,0825,12244,026.6,045.4,0.259,755.5,01.16,0.508
2015-09-27 01:58:00,2012E-3,5C000400,-0724,0825,12281,026.6,045.4,0.259,755.2,01.16,0.508
2015-09-27 01:59:00,1975E-3,5C000400,-0724,0825,12139,026.6,045.4,0.259,755.3,01.16,0.508
2015-09-27 02:00:00,1882E-3,5C000400,-0724,0825,12083,026.6,045.4,0.259,755.6,01.16,0.508
2015-09-27 02:01:00,1856E-3,5C000400,-0724,0825,12128,026.5,045.4,0.259,755.6,01.16,0.508
2015-09-27 02:02:00,1848E-3,5C000400,-0724,0825,12130,026.6,045.4,0.258,755.6,01.16,0.508
2015-09-27 02:03:00,1999E-3,5C000400,-0724,0825,12300,026.6,045.4,0.258,755.4,01.16,0.508
2015-09-27 02:04:00,2053E-3,5C000400,-0724,0825,12310,026.6,045.4,0.259,755.2,01.16,0.508
2015-09-27 02:05:00,1996E-3,5C000400,-0724,0825,12251,026.6,045.4,0.259,755.2,01.16,0.508
2015-09-27 02:06:00,1945E-3,5C000400,-0724,0825,12275,026.6,045.4,0.259,755.2,01.16,0.508
2015-09-27 02:07:00,1849E-3,5C000400,-0724,0825,12221,026.6,045.4,0.259,755.4,01.16,0.508
2015-09-27 02:08:00,1850E-3,5C000400,-0724,0825,12300,026.6,045.4,0.259,755.4,01.16,0.508
2015-09-27 02:09:00,1904E-3,5C000400,-0724,0825,12138,026.6,045.4,0.259,754.8,01.17,0.508
2015-09-27 02:10:00,2028E-3,5C000400,-0724,0825,12179,026.6,045.4,0.259,755.0,01.17,0.508
2015-09-27 02:11:00,1986E-3,5C000400,-0724,0825,12261,026.6,045.4,0.259,754.8,01.17,0.508
2015-09-27 02:12:00,1871E-3,5C000400,-0724,0825,12241,026.6,045.4,0.259,755.0,01.17,0.508
2015-09-27 02:13:00,1930E-3,5C000400,-0724,0825,12295,026.6,045.4,0.259,754.3,01.17,0.508
2015-09-27 02:14:00,2026E-3,5C000400,-0724,0826,12277,026.6,045.4,0.259,754.4,01.17,0.508
2015-09-27 02:15:00,1854E-3,5C000400,-0724,0824,12300,026.6,045.4,0.259,754.7,01.17,0.508
2015-09-27 02:16:00,1969E-3,5C000400,-0724,0825,12214,026.6,045.4,0.259,754.8,01.17,0.508
2015-09-27 02:17:00,1956E-3,5C000400,-0724,0824,12248,026.6,045.4,0.259,754.3,01.17,0.508
2015-09-27 02:18:00,1972E-3,5C000400,-0724,0826,12306,026.6,045.4,0.259,754.1,01.17,0.508
2015-09-27 02:19:00,1849E-3,5C000400,-0724,0824,12207,026.6,045.4,0.259,754.3,01.17,0.508
2015-09-27 02:20:00,1907E-3,5C000400,-0724,0825,12211,026.6,045.4,0.259,754.6,01.17,0.508
2015-09-27 02:21:00,1844E-3,5C000400,-0724,0825,12224,026.6,045.4,0.259,754.5,01.17,0.508
2015-09-27 02:22:00,2017E-3,5C000400,-0724,0826,12245,026.6,045.4,0.259,754.5,01.17,0.508
2015-09-27 02:23:00,1966E-3,5C000400,-0724,0825,12093,026.6,045.4,0.259,754.4,01.17,0.508
2015-09-27 02:24:00,1962E-3,5C000400,-0724,0825,12375,026.6,045.4,0.259,754.1,01.17,0.508
2015-09-27 02:25:00,1784E-3,5C000400,-0724,0826,12245,026.6,045.4,0.258,753.9,01.17,0.508
2015-09-27 02:26:00,1963E-3,5C000400,-0724,0825,12148,026.6,045.4,0.259,753.7,01.17,0.508
2015-09-27 02:27:00,1856E-3,5C000400,-0724,0826,12215,026.6,045.4,0.259,754.3,01.17,0.508
2015-09-27 02:28:00,1751E-3,5C000400,-0724,0826,12121,026.6,045.4,0.259,754.2,01.17,0.508
2015-09-27 02:29:00,2033E-3,5C000400,-0724,0825,12280,026.6,045.4,0.259,754.6,01.17,0.508
2015-09-27 02:30:00,1957E-3,5C000400,-0724,0824,12268,026.6,045.4,0.259,754.1,01.17,0.508
2015-09-27 02:31:00,1795E-3,5C000400,-0724,0825,12145,026.6,045.4,0.259,753.8,01.17,0.508
2015-09-27 02:32:00,1916E-3,5C000400,-0724,0825,12310,026.6,045.4,0.259,754.4,01.17,0.508
2015-09-27 02:33:00,1910E-3,5C000400,-0724,0825,12199,026.6,045.4,0.259,754.5,01.17,0.508
2015-09-27 02:34:00,1807E-3,5C000400,-0724,0825,12201,026.6,045.4,0.259,754.4,01.17,0.508
2015-09-27 02:35:00,1888E-3,5C000400,-0724,0825,12321,026.7,045.4,0.259,754.4,01.17,0.508
2015-09-27 02:36:00,1797E-3,5C000400,-0724,0826,12199,026.6,045.4,0.259,754.2,01.17,0.508
2015-09-27 02:37:00,1891E-3,5C000400,-0724,0826,12331,026.6,045.4,0.259,754.6,01.17,0.508
2015-09-27 02:38:00,2040E-3,5C000400,-0724,0826,12314,026.6,045.4,0.259,754.5,01.17,0.508
2015-09-27 02:39:00,1984E-3,5C000400,-0724,0825,12328,026.6,045.4,0.259,754.7,01.17,0.508
2015-09-27 02:40:00,1921E-3,5C000400,-0724,0825,12047,026.6,045.4,0.259,754.4,01.17,0.508
2015-09-27 02:41:00,1944E-3,5C000400,-0724,0825,12047,026.6,045.4,0.259,754.1,01.17,0.508
2015-09-27 02:42:00,1940E-3,5C000400,-0724,0826,12167,026.6,045.4,0.259,754.4,01.17,0.508
2015-09-27 02:43:00,1962E-3,5C000400,-0724,0826,12252,026.6,045.4,0.259,754.6,01.17,0.508
2015-09-27 02:44:00,1865E-3,5C000400,-0724,0825,12234,026.6,045.4,0.259,754.4,01.17,0.508
2015-09-27 02:45:00,1977E-3,5C000400,-0724,0826,12027,026.6,045.4,0.259,754.4,01.17,0.508
2015-09-27 02:46:00,2038E-3,5C000400,-0724,0826,12192,026.6,045.4,0.259,754.2,01.17,0.508
2015-09-27 02:47:00,1890E-3,5C000400,-0724,0826,12122,026.6,045.4,0.259,754.2,01.17,0.508
2015-09-27 02:48:00,1966E-3,5C000400,-0724,0826,12391,026.6,045.4,0.259,754.6,01.17,0.508
2015-09-27 02:49:00,1924E-3,5C000400,-0724,0825,12267,026.6,045.4,0.259,754.7,01.17,0.508
2015-09-27 02:50:00,2006E-3,5C000400,-0724,0825,12056,026.6,045.4,0.259,754.6,01.17,0.508
2015-09-27 02:51:00,1981E-3,5C000400,-0724,0825,12198,026.6,045.4,0.259,754.4,01.17,0.508
2015-09-27 02:52:00,2031E-3,5C000400,-0724,0825,12249,026.6,045.4,0.259,754.1,01.17,0.508
2015-09-27 02:53:00,1992E-3,5C000400,-0724,0825,12244,026.6,045.4,0.259,754.6,01.17,0.508
2015-09-27 02:54:00,1914E-3,5C000400,-0724,0826,12187,026.6,045.4,0.258,754.8,01.17,0.508
2015-09-27 02:55:00,2012E-3,5C000400,-0724,0826,12191,026.6,045.4,0.259,754.5,01.17,0.508
2015-09-27 02:56:00,2041E-3,5C000400,-0724,0826,12239,026.6,045.4,0.259,754.6,01.17,0.508
2015-09-27 02:57:00,1820E-3,5C000400,-0724,0825,12242,026.6,045.4,0.259,754.9,01.17,0.508
2015-09-27 02:58:00,2008E-3,5C000400,-0724,0826,12396,026.6,045.4,0.258,754.7,01.17,0.508
2015-09-27 02:59:00,1935E-3,5C000400,-0724,0824,12417,026.6,045.4,0.258,754.9,01.17,0.508
2015-09-27 03:00:00,1898E-3,5C000400,-0724,0826,12425,026.6,045.4,0.258,754.7,01.17,0.508
2015-09-27 03:01:00,1896E-3,5C000400,-0724,0825,12269,026.6,045.4,0.258,754.7,01.17,0.508
2015-09-27 03:02:00,2059E-3,5C000400,-0724,0825,12281,026.6,045.4,0.258,754.8,01.17,0.508
2015-09-27 03:03:00,2021E-3,5C000400,-0724,0825,12262,026.6,045.4,0.258,755.1,01.16,0.508
2015-09-27 03:04:00,1918E-3,5C000400,-0724,0826,12163,026.6,045.4,0.258,754.8,01.17,0.508
2015-09-27 03:05:00,1837E-3,5C000400,-0724,0826,12188,026.6,045.4,0.258,754.9,01.17,0.508
2015-09-27 03:06:00,1876E-3,5C000400,-0724,0825,12243,026.6,045.4,0.258,755.1,01.16,0.508
2015-09-27 03:07:00,1963E-3,5C000400,-0724,0826,12316,026.6,045.4,0.258,755.2,01.16,0.508
2015-09-27 03:08:00,1805E-3,5C000400,-0724,0825,12217,026.6,045.4,0.259,755.4,01.16,0.508
2015-09-27 03:09:00,2035E-3,5C000400,-0724,0826,12177,026.6,045.4,0.258,755.1,01.16,0.508
2015-09-27 03:10:00,1913E-3,5C000400,-0724,0825,12257,026.6,045.4,0.259,755.2,01.16,0.508
2015-09-27 03:11:00,2012E-3,5C000400,-0724,0825,12291,026.6,045.4,0.259,755.4,01.16,0.508
2015-09-27 03:12:00,1924E-3,5C000400,-0724,0825,12190,026.7,045.4,0.259,755.2,01.16,0.508
2015-09-27 03:13:00,1930E-3,5C000400,-0724,0826,12340,026.6,045.4,0.259,755.2,01.16,0.508
2015-09-27 03:14:00,1946E-3,5C000400,-0724,0826,12404,026.6,045.4,0.259,755.4,01.16,0.508
2015-09-27 03:15:00,2022E-3,5C000400,-0724,0826,12213,026.7,045.4,0.259,755.4,01.16,0.508
2015-09-27 03:16:00,2041E-3,5C000400,-0724,0826,12166,026.6,045.4,0.259,755.5,01.16,0.508
2015-09-27 03:17:00,1939E-3,5C000400,-0724,0825,12355,026.6,045.4,0.259,755.2,01.16,0.508
2015-09-27 03:18:00,1976E-3,5C000400,-0724,0826,12206,026.7,045.4,0.259,755.4,01.16,0.508
2015-09-27 03:19:00,1874E-3,5C000400,-0724,0826,12331,026.7,045.4,0.259,755.5,01.16,0.508
2015-09-27 03:20:00,1985E-3,5C000400,-0724,0826,12202,026.7,045.4,0.259,755.4,01.16,0.508
2015-09-27 03:21:00,1853E-3,5C000400,-0724,0825,12290,026.7,045.4,0.259,755.2,01.16,0.508
2015-09-27 03:22:00,2007E-3,5C000400,-0724,0826,12286,026.7,045.4,0.259,755.4,01.16,0.508
2015-09-27 03:23:00,1978E-3,5C000400,-0724,0826,12257,026.7,045.4,0.259,755.4,01.16,0.508
2015-09-27 03:24:00,1880E-3,5C000400,-0724,0826,12327,026.7,045.4,0.259,755.2,01.16,0.508
2015-09-27 03:25:00,2011E-3,5C000400,-0724,0825,12247,026.7,045.4,0.259,755.3,01.16,0.508
2015-09-27 03:26:00,1944E-3,5C000400,-0724,0825,12329,026.7,045.4,0.259,755.4,01.16,0.508
2015-09-27 03:27:00,1916E-3,5C000400,-0724,0825,12144,026.7,045.4,0.259,755.3,01.16,0.508
2015-09-27 03:28:00,1910E-3,5C000400,-0724,0825,12167,026.7,045.4,0.259,755.1,01.16,0.508
2015-09-27 03:29:00,1931E-3,5C000400,-0724,0825,12138,026.7,045.4,0.258,755.4,01.16,0.508
2015-09-27 03:30:00,1956E-3,5C000400,-0724,0825,12245,026.7,045.4,0.258,755.1,01.16,0.508
2015-09-27 03:31:00,1883E-3,5C000400,-0724,0825,12270,026.7,045.4,0.258,754.9,01.17,0.508
2015-09-27 03:32:00,1834E-3,5C000400,-0724,0824,12309,026.7,045.4,0.258,755.2,01.16,0.508
2015-09-27 03:33:00,2032E-3,5C000400,-0724,0826,12120,026.7,045.4,0.258,755.2,01.16,0.508
2015-09-27 03:34:00,2027E-3,5C000400,-0724,0825,12314,026.7,045.4,0.258,755.2,01.16,0.508
2015-09-27 03:35:00,1949E-3,5C000400,-0724,0825,12183,026.7,045.4,0.258,755.2,01.16,0.508
2015-09-27 03:36:00,2036E-3,5C000400,-0724,0825,12173,026.7,045.4,0.258,754.9,01.17,0.508
2015-09-27 03:37:00,2000E-3,5C000400,-0724,0825,12145,026.7,045.4,0.259,755.2,01.16,0.508
2015-09-27 03:38:00,2093E-3,5C000400,-0724,0826,12298,026.7,045.4,0.259,755.2,01.16,0.508
2015-09-27 03:39:00,1998E-3,5C000400,-0724,0825,12065,026.7,045.4,0.259,755.0,01.17,0.508
2015-09-27 03:40:00,1999E-3,5C000400,-0724,0825,12221,026.7,045.4,0.259,755.1,01.16,0.508
2015-09-27 03:41:00,1958E-3,5C000400,-0724,0826,12227,026.7,045.4,0.258,754.9,01.17,0.508
2015-09-27 03:42:00,2020E-3,5C000400,-0724,0825,12018,026.7,045.4,0.259,754.7,01.17,0.508
2015-09-27 03:43:00,1930E-3,5C000400,-0724,0825,12218,026.7,045.4,0.258,755.1,01.16,0.508
2015-09-27 03:44:00,2079E-3,5C000400,-0724,0825,12211,026.7,045.4,0.258,754.8,01.17,0.508
2015-09-27 03:45:00,1991E-3,5C000400,-0724,0825,12380,026.7,045.4,0.258,755.2,01.16,0.508
2015-09-27 03:46:00,1855E-3,5C000400,-0724,0825,12245,026.7,045.4,0.258,755.1,01.16,0.508
2015-09-27 03:47:00,1855E-3,5C000400,-0724,0825,12242,026.7,045.4,0.258,755.2,01.16,0.508
2015-09-27 03:48:00,1940E-3,5C000400,-0724,0825,12264,026.7,045.4,0.258,755.2,01.16,0.508
2015-09-27 03:49:00,1901E-3,5C000400,-0724,0826,12131,026.7,045.4,0.258,755.0,01.17,0.508
2015-09-27 03:50:00,1794E-3,5C000400,-0724,0826,12287,026.7,045.4,0.259,755.2,01.16,0.508
2015-09-27 03:51:00,1883E-3,5C000400,-0724,0825,12093,026.7,045.4,0.259,755.3,01.16,0.508
2015-09-27 03:52:00,2005E-3,5C000400,-0724,0826,12127,026.7,045.4,0.259,755.3,01.16,0.508
2015-09-27 03:53:00,1925E-3,5C000400,-0724,0825,12166,026.7,045.4,0.259,755.2,01.16,0.508
2015-09-27 03:54:00,2046E-3,5C000400,-0724,0825,12356,026.7,045.4,0.259,755.5,01.16,0.508
2015-09-27 03:55:00,1892E-3,5C000400,-0724,0826,12236,026.7,045.4,0.259,755.6,01.16,0.508
2015-09-27 03:56:00,2082E-3,5C000400,-0724,0825,12293,026.7,045.4,0.258,755.1,01.16,0.508
2015-09-27 03:57:00,1960E-3,5C000400,-0724,0825,12284,026.7,045.4,0.258,755.1,01.16,0.508
2015-09-27 03:58:00,1889E-3,5C000400,-0724,0826,12242,026.7,045.4,0.258,755.5,01.16,0.508
2015-09-27 03:59:00,2033E-3,5C000400,-0724,0825,12191,026.7,045.4,0.258,755.4,01.16,0.508
2015-09-27 04:00:00,1940E-3,5C000400,-0724,0825,12258,026.7,045.4,0.258,755.4,01.16,0.508
2015-09-27 04:01:00,1957E-3,5C000400,-0724,0825,12143,026.7,045.4,0.258,755.0,01.17,0.508
2015-09-27 04:02:00,2097E-3,5C000400,-0724,0825,12238,026.7,045.4,0.259,755.4,01.16,0.508
2015-09-27 04:03:00,1839E-3,5C000400,-0724,0825,12252,026.8,045.4,0.259,755.4,01.16,0.508
2015-09-27 04:04:00,2013E-3,5C000400,-0724,0825,12254,026.7,045.4,0.259,755.7,01.16,0.508
2015-09-27 04:05:00,1907E-3,5C000400,-0724,0826,12282,026.7,045.4,0.259,755.6,01.16,0.508
2015-09-27 04:06:00,1889E-3,5C000400,-0724,0825,12229,026.7,045.4,0.259,755.5,01.16,0.508
2015-09-27 04:07:00,1992E-3,5C000400,-0724,0826,12206,026.8,045.4,0.259,755.4,01.16,0.508
2015-09-27 04:08:00,1909E-3,5C000400,-0724,0825,12184,026.7,045.4,0.259,755.7,01.16,0.508
2015-09-27 04:09:00,1990E-3,5C000400,-0724,0825,12158,026.8,045.4,0.259,755.7,01.16,0.508
2015-09-27 04:10:00,1975E-3,5C000400,-0724,0825,12162,026.8,045.4,0.258,755.7,01.16,0.508
2015-09-27 04:11:00,1943E-3,5C000400,-0724,0825,12208,026.8,045.4,0.258,755.6,01.16,0.508
2015-09-27 04:12:00,2039E-3,5C000400,-0724,0825,12353,026.8,045.4,0.258,755.5,01.16,0.508
2015-09-27 04:13:00,2053E-3,5C000400,-0724,0825,12250,026.8,045.4,0.258,755.6,01.16,0.508
2015-09-27 04:14:00,1971E-3,5C000400,-0724,0826,12260,026.7,045.4,0.258,755.6,01.16,0.508
2015-09-27 04:15:00,1932E-3,5C000400,-0724,0826,12302,026.8,045.4,0.258,755.4,01.16,0.508
2015-09-27 04:16:00,1897E-3,5C000400,-0724,0825,12270,026.8,045.4,0.258,755.3,01.16,0.508
2015-09-27 04:17:00,1914E-3,5C000400,-0724,0825,12292,026.8,045.4,0.258,755.5,01.16,0.508
2015-09-27 04:18:00,2004E-3,5C000400,-0724,0825,12119,026.8,045.4,0.258,755.2,01.16,0.508
2015-09-27 04:19:00,1951E-3,5C000400,-0724,0826,12354,026.8,045.4,0.258,755.5,01.16,0.508
2015-09-27 04:20:00,1876E-3,5C000400,-0724,0825,12191,026.8,045.4,0.258,755.5,01.16,0.508